Date String (YYYY-MM-DD hh:mm:ss) UTC,Instrument flags,absolute air pressure of the measurement (hPa),sample flow rate (lpm),inlet stack bypass flow (lpm),air temperature of the measurement (°C),ambient temperature measured by the external sensor (°C),aerosol sample conditioner tube jacket temperature (°C),OPC LED temperature (°C),internal box temperature (°C),relative humidity of the measurement (%),span deviation,mass concentration of particles derived from Lorenz-Mie calculation of OPC scattering (μg/m³),mass concentration of particles derived from Lorenz-Mie calculation of OPC scattering (μg/m³),mass concentration of particles derived from Lorenz-Mie calculation of OPC scattering (μg/m³)
DateTimeUTC,F1_M11,P_M11,Q1_M11,Q2_M11,T1_M11,T2_M11,T3_M11,T4_M11,T5_M11,U1_M11,ZSPAN_M11,X0_M11,X2_M11,X1_M11
2023-09-07 00:00:00,SystemResetWarning,0831.3,5.00,000.00,027.8,024.7,000.0,036.0,029.1,21.5,0002.5,0017.40,0006.59,0005.51
2023-09-07 00:01:00,SystemResetWarning,0831.3,5.01,000.00,027.7,024.2,000.0,036.0,029.0,21.9,0002.2,0016.48,0006.70,0005.52
2023-09-07 00:02:00,SystemResetWarning,0831.3,5.00,000.00,027.7,024.5,000.0,035.9,029.1,21.3,0002.2,0016.83,0006.76,0005.50
2023-09-07 00:03:00,SystemResetWarning,0831.3,5.00,000.00,027.7,024.9,000.0,035.9,029.2,21.3,0002.1,0016.14,0006.79,0005.48
2023-09-07 00:04:00,SystemResetWarning,0831.3,4.99,000.00,027.7,025.4,000.0,035.9,029.3,21.4,0002.0,0016.91,0006.80,0005.46
2023-09-07 00:05:00,SystemResetWarning,0831.4,4.99,000.00,027.7,025.8,000.0,036.0,029.4,21.8,0001.9,0016.84,0006.75,0005.45
2023-09-07 00:06:00,SystemResetWarning,0831.4,5.00,000.00,027.8,026.2,000.0,036.0,029.5,21.8,0002.0,0016.51,0006.77,0005.44
2023-09-07 00:07:00,SystemResetWarning,0831.3,5.00,000.00,027.9,026.5,000.0,036.0,029.6,21.4,0001.9,0016.94,0006.81,0005.45
2023-09-07 00:08:00,SystemResetWarning,0831.3,5.01,000.00,027.9,026.7,000.0,036.0,029.7,21.5,0001.7,0017.95,0006.76,0005.43
2023-09-07 00:09:00,SystemResetWarning,0831.3,4.99,000.00,027.9,025.6,000.0,036.0,029.4,21.4,0001.4,0018.04,0006.76,0005.41
2023-09-07 00:10:00,SystemResetWarning,0831.3,5.00,000.00,027.8,024.3,000.0,036.0,029.0,21.8,0001.0,0018.20,0006.74,0005.38
2023-09-07 00:11:00,SystemResetWarning,0831.3,5.01,000.00,027.7,024.3,000.0,035.9,029.0,22.2,0001.0,0018.19,0006.76,0005.37
2023-09-07 00:12:00,SystemResetWarning,0831.3,5.00,000.00,027.7,024.6,000.0,035.9,029.1,22.6,0001.1,0019.11,0006.69,0005.35
2023-09-07 00:13:00,SystemResetWarning,0831.3,5.00,000.00,027.6,025.1,000.0,035.9,029.2,22.9,0000.9,0020.48,0006.67,0005.36
2023-09-07 00:14:00,SystemResetWarning,0831.3,5.00,000.00,027.7,025.5,000.0,035.9,029.3,22.7,0000.9,0019.42,0006.65,0005.35
2023-09-07 00:15:00,SystemResetWarning,0831.3,5.00,000.00,027.7,025.9,000.0,036.0,029.4,21.8,0000.8,0018.15,0006.61,0005.34
2023-09-07 00:16:00,SystemResetWarning,0831.3,5.00,000.00,027.8,026.3,000.0,036.0,029.6,21.8,0001.0,0018.19,0006.62,0005.34
2023-09-07 00:17:00,SystemResetWarning,0831.3,5.00,000.00,027.9,026.6,000.0,036.0,029.7,22.2,0001.3,0019.21,0006.59,0005.33
2023-09-07 00:18:00,SystemResetWarning,0831.3,5.00,000.00,027.9,026.8,000.0,036.1,029.8,22.3,0001.6,0018.95,0006.53,0005.31
2023-09-07 00:19:00,SystemResetWarning,0831.3,4.98,000.00,027.9,025.8,000.0,036.0,029.5,21.9,0001.7,0017.88,0006.56,0005.31
2023-09-07 00:20:00,SystemResetWarning,0831.3,5.01,000.00,027.8,024.3,000.0,036.0,029.1,21.8,0001.9,0018.15,0006.55,0005.32
2023-09-07 00:21:00,SystemResetWarning,0831.2,5.01,000.00,027.7,024.2,000.0,035.9,029.1,21.8,0002.4,0018.03,0006.55,0005.32
2023-09-07 00:22:00,SystemResetWarning,0831.2,5.01,000.00,027.7,024.6,000.0,035.9,029.1,21.6,0002.7,0018.78,0006.52,0005.30
2023-09-07 00:23:00,SystemResetWarning,0831.3,4.99,000.00,027.7,025.0,000.0,036.0,029.2,21.7,0002.8,0019.19,0006.53,0005.27
2023-09-07 00:24:00,SystemResetWarning,0831.3,4.99,000.00,027.7,025.4,000.0,036.0,029.3,21.8,0003.0,0017.53,0006.51,0005.25
2023-09-07 00:25:00,SystemResetWarning,0831.3,4.99,000.00,027.8,025.9,000.0,036.0,029.4,21.8,0003.1,0018.24,0006.46,0005.22
2023-09-07 00:26:00,SystemResetWarning,0831.3,5.00,000.00,027.8,026.2,000.0,036.0,029.6,21.7,0003.2,0018.73,0006.43,0005.20
2023-09-07 00:27:00,SystemResetWarning,0831.3,5.01,000.00,027.9,026.6,000.0,036.0,029.7,22.2,0003.2,0018.89,0006.39,0005.17
2023-09-07 00:28:00,SystemResetWarning,0831.3,4.99,000.00,027.9,026.8,000.0,036.1,029.8,22.3,0002.9,0018.35,0006.36,0005.17
2023-09-07 00:29:00,SystemResetWarning,0831.3,4.98,000.00,028.0,026.1,000.0,036.1,029.5,22.4,0002.7,0018.88,0006.38,0005.16
2023-09-07 00:30:00,SystemResetWarning,0831.2,5.00,000.00,027.8,024.6,000.0,036.0,029.1,22.5,0002.7,0019.51,0006.40,0005.16
2023-09-07 00:31:00,SystemResetWarning,0831.2,5.01,000.00,027.7,024.3,000.0,036.0,029.0,22.3,0002.9,0019.19,0006.39,0005.15
2023-09-07 00:32:00,SystemResetWarning,0831.2,5.01,000.00,027.7,024.6,000.0,036.0,029.1,22.7,0002.8,0018.96,0006.37,0005.15
2023-09-07 00:33:00,SystemResetWarning,0831.2,5.00,000.00,027.7,024.9,000.0,036.0,029.2,22.9,0002.8,0018.75,0006.36,0005.15
2023-09-07 00:34:00,SystemResetWarning,0831.2,4.99,000.00,027.7,025.4,000.0,036.0,029.3,23.2,0002.6,0017.71,0006.29,0005.17
2023-09-07 00:35:00,SystemResetWarning,0831.2,5.00,000.00,027.7,025.8,000.0,036.0,029.4,23.3,0002.4,0017.77,0006.29,0005.18
2023-09-07 00:36:00,SystemResetWarning,0831.2,5.00,000.00,027.8,026.2,000.0,036.0,029.6,23.1,0002.6,0017.35,0006.30,0005.20
2023-09-07 00:37:00,SystemResetWarning,0831.2,5.00,000.00,027.9,026.5,000.0,036.0,029.7,23.1,0002.6,0017.32,0006.32,0005.22
2023-09-07 00:38:00,SystemResetWarning,0831.2,5.00,000.00,027.9,026.8,000.0,036.1,029.8,23.1,0002.5,0017.44,0006.32,0005.22
2023-09-07 00:39:00,SystemResetWarning,0831.2,4.99,000.00,028.0,026.9,000.0,036.1,029.8,23.1,0002.6,0016.98,0006.38,0005.22
2023-09-07 00:40:00,SystemResetWarning,0831.2,4.99,000.00,028.0,025.6,000.0,036.1,029.4,23.0,0002.8,0016.60,0006.39,0005.22
2023-09-07 00:41:00,SystemResetWarning,0831.1,5.01,000.00,027.8,024.4,000.0,036.0,029.0,23.1,0002.7,0016.86,0006.37,0005.23
2023-09-07 00:42:00,SystemResetWarning,0831.1,5.01,000.00,027.8,024.4,000.0,036.0,029.1,23.4,0002.5,0017.24,0006.37,0005.23
2023-09-07 00:43:00,SystemResetWarning,0831.1,5.01,000.00,027.7,024.7,000.0,036.0,029.1,23.5,0002.5,0018.02,0006.39,0005.22
2023-09-07 00:44:00,SystemResetWarning,0831.2,5.00,000.00,027.7,025.1,000.0,036.0,029.2,23.6,0002.4,0018.67,0006.45,0005.21
2023-09-07 00:45:00,SystemResetWarning,0831.2,5.01,000.00,027.8,025.6,000.0,036.0,029.4,23.5,0002.3,0019.10,0006.47,0005.20
2023-09-07 00:46:00,SystemResetWarning,0831.2,4.99,000.00,027.8,026.0,000.0,036.0,029.5,23.4,0001.8,0019.17,0006.49,0005.19
2023-09-07 00:47:00,SystemResetWarning,0831.2,4.99,000.00,027.9,026.3,000.0,036.1,029.6,23.2,0001.7,0018.98,0006.47,0005.17
2023-09-07 00:48:00,SystemResetWarning,0831.2,4.99,000.00,027.9,026.7,000.0,036.1,029.7,23.1,0001.7,0018.57,0006.43,0005.16
2023-09-07 00:49:00,SystemResetWarning,0831.2,5.00,000.00,028.0,026.9,000.0,036.1,029.8,23.1,0001.8,0018.62,0006.46,0005.17
2023-09-07 00:50:00,SystemResetWarning,0831.1,4.99,000.00,028.1,026.6,000.0,036.1,029.8,23.1,0001.4,0019.35,0006.46,0005.17
2023-09-07 00:51:00,SystemResetWarning,0831.1,5.00,000.00,028.0,025.1,000.0,036.1,029.3,23.3,0001.1,0020.59,0006.43,0005.15
2023-09-07 00:52:00,SystemResetWarning,0831.1,5.01,000.00,027.8,024.3,000.0,036.1,029.1,23.4,0001.0,0019.52,0006.38,0005.12
2023-09-07 00:53:00,SystemResetWarning,0831.1,5.01,000.00,027.8,024.4,000.0,036.0,029.1,23.4,0001.0,0019.34,0006.33,0005.11
2023-09-07 00:54:00,SystemResetWarning,0831.1,5.00,000.00,027.7,024.8,000.0,036.0,029.1,23.5,0001.2,0019.39,0006.28,0005.10
2023-09-07 00:55:00,SystemResetWarning,0831.1,5.00,000.00,027.7,025.2,000.0,036.0,029.3,23.4,0001.1,0019.30,0006.21,0005.08
2023-09-07 00:56:00,SystemResetWarning,0831.1,5.00,000.00,027.8,025.7,000.0,036.0,029.4,23.1,0001.2,0019.00,0006.22,0005.08
2023-09-07 00:57:00,SystemResetWarning,0831.2,4.99,000.00,027.8,026.1,000.0,036.1,029.5,23.0,0001.6,0019.05,0006.19,0005.07
2023-09-07 00:58:00,SystemResetWarning,0831.2,5.00,000.00,027.9,026.4,000.0,036.1,029.7,23.0,0001.9,0019.20,0006.16,0005.04
2023-09-07 00:59:00,SystemResetWarning,0831.2,5.00,000.00,027.9,026.7,000.0,036.1,029.7,22.8,0001.6,0019.58,0006.20,0005.05
